Zurück zum Katalog

CZ-6A DEB

AktivPO
NORAD 60969·DEBRIS·🇨🇳 China

Gestartet Aug 6, 2024 von Taiyuan Satellite Launch Center

Loading…

Nächste Überflüge (nächste 24 Stunden)

TLE

AktuellSource: Space-Track

Epoche: Sep 14, 2026, 11:55 UTC

1 60969U 24140LU  26257.49660618  .00000194  00000-0  86695-4 0  9995
2 60969  89.0003 265.2930 0049177 276.4413  83.1178 14.18244526107726

Verfolge CZ-6A DEB in Echtzeit mit AllMySat

Download on the App Store